x

8447387 - Borden Flats Light At Fall River, Ma (bltm3) Weather Station

7:30 - Sat 1st Oct 2016 All times are EDT. -4 hours from GMT.

  • Wind
    15mph, 18mph gusts
  • Luft Temp 60°f
  • Sea Pressure 1024.4mb
  • 8447387 - Borden Flats Light At Fall River, Ma
  • 8447387 - Borden Flats Light At Fall River, Ma

More Historic Weather Station data

Upgrade to MSW Pro to gain access to the past 30 days of data for over 8000 Wavebouys and Weather Stations around the globe.

Join Pro

Comparision Forecast

View Surf forecast
   
Sa 10/01 7:30 15 18 mph 1024.4mb 60f
7:24 13 15 mph 1024.6mb 60f
7:18 14 18 mph 1024.5mb 60f
7:12 14 17 mph 1024.4mb 60f
7:06 13 15 mph 1024.5mb 60f
7:00 16 20 mph 1024.4mb 60f
6:54 16 20 mph 1024.3mb 60f
6:48 16 20 mph 1024.3mb 60f
6:42 14 15 mph 1024.5mb 60f
6:36 13 16 mph 1024.6mb 60f
6:30 14 17 mph 1024.6mb 59f
6:24 13 16 mph 1024.6mb 59f
6:18 14 17 mph 1024.6mb 59f
6:12 11 15 mph 1024.6mb 59f
6:06 15 18 mph 1024.5mb 59f
6:00 16 20 mph 1024.4mb 59f
5:54 17 21 mph 1024.4mb 59f
5:48 17 24 mph 1024.4mb 59f
5:42 17 20 mph 1024.3mb 59f
5:36 15 21 mph 1024.4mb 59f
5:30 15 18 mph 1024.3mb 59f
5:24 15 18 mph 1024.5mb 59f
5:18 15 18 mph 1024.4mb 59f
5:12 16 20 mph 1024.2mb 60f
5:06 15 20 mph 1024.1mb 60f
5:00 16 23 mph 1024.1mb 60f
4:54 17 24 mph 1024.1mb 60f
4:48 14 20 mph 1024.2mb 60f
4:42 18 23 mph 1024mb 60f
4:36 17 21 mph 1023.9mb 60f
4:30 16 18 mph 1024mb 60f
4:24 17 21 mph 1024.1mb 60f
4:18 17 22 mph 1024.1mb 60f
4:12 15 21 mph 1024.1mb 60f
4:06 15 21 mph 1024.1mb 60f
4:00 15 18 mph 1024mb 60f
3:54 16 22 mph 1024.1mb 60f
3:48 15 18 mph 1024.2mb 60f
3:42 16 23 mph 1024.3mb 60f
3:36 17 22 mph 1024.2mb 60f
3:30 16 20 mph 1024.2mb 60f
3:24 17 24 mph 1024.2mb 60f
3:18 18 23 mph 1024.3mb 60f
3:12 16 21 mph 1024.4mb 60f
3:06 17 22 mph 1024.5mb 60f
3:00 17 24 mph 1024.5mb 60f
2:30 15 18 mph 1024.7mb 60f
2:24 16 20 mph 1024.7mb 60f
2:18 16 21 mph 1024.8mb 60f
2:12 17 23 mph 1024.7mb 60f
2:06 16 20 mph 1024.8mb 60f
2:00 16 20 mph 1024.7mb 60f
1:54 18 23 mph 1024.7mb 60f
1:48 17 23 mph 1024.9mb 60f
1:42 16 23 mph 1025mb 60f
1:36 15 18 mph 1025.1mb 60f
1:30 17 22 mph 1025.2mb 60f
1:24 15 20 mph 1025.3mb 60f
1:18 18 23 mph 1025.2mb 60f
1:12 16 25 mph 1025.2mb 60f
1:06 18 24 mph 1025.2mb 60f
1:00 17 24 mph 1025.2mb 60f
12:54 17 21 mph 1025.2mb 60f
12:48 17 24 mph 1025.1mb 60f
12:42 17 22 mph 1025.1mb 60f
12:36 20 24 mph 1025mb 60f
12:30 18 23 mph 1025.1mb 60f
12:24 17 23 mph 1025.2mb 60f
12:18 17 24 mph 1025.3mb 60f
12:12 16 18 mph 1025.4mb 60f
12:06 18 22 mph 1025.3mb 60f
12:00 16 22 mph 1025.4mb 60f
Fr 09/30 11:54 16 21 mph 1025.4mb 60f
11:48 18 22 mph 1025.4mb 60f
11:42 17 23 mph 1025.5mb 60f
11:36 17 22 mph 1025.5mb 60f
11:30 18 22 mph 1025.6mb 60f
11:24 18 24 mph 1025.6mb 60f
11:18 17 21 mph 1025.7mb 60f
11:12 18 21 mph 1025.8mb 59f
11:06 20 25 mph 1025.9mb 59f
11:00 17 23 mph 1026mb 59f
10:54 16 22 mph 1026.1mb 59f
10:48 17 25 mph 1026.2mb 59f
10:42 16 21 mph 1026.4mb 59f
10:36 18 26 mph 1026.4mb 59f
10:30 16 22 mph - 59f
10:24 16 22 mph - 59f
10:18 15 18 mph 1026.8mb 59f
10:12 15 18 mph 1026.8mb 59f
10:06 16 20 mph 1026.8mb 59f
10:00 16 20 mph 1026.8mb 59f
9:54 16 18 mph 1026.9mb 59f
9:48 15 21 mph 1026.8mb 59f
9:42 16 20 mph 1026.8mb 59f
9:36 15 18 mph 1026.8mb 59f
9:30 17 21 mph 1026.7mb -
9:24 18 23 mph 1026.7mb -
9:18 16 22 mph 1026.9mb 59f
9:12 14 18 mph 1026.9mb 59f
9:06 16 20 mph 1026.9mb 59f
9:00 15 18 mph 1027mb 59f
8:54 17 25 mph 1026.9mb 59f
8:48 16 21 mph 1026.9mb 59f
8:42 15 18 mph 1027mb 59f
8:36 15 20 mph 1027mb 59f
8:30 16 20 mph 1027.1mb -
8:24 16 20 mph 1027.2mb -
8:18 15 18 mph 1027.3mb 59f
8:12 15 20 mph 1027.3mb 59f
8:06 15 18 mph 1027.2mb 59f
8:00 14 18 mph 1027.3mb 59f
7:54 15 17 mph 1027.4mb 59f
7:48 16 21 mph 1027.4mb -
7:42 14 16 mph 1027.5mb -
7:36 11 14 mph 1027.7mb -
7:00 16 18 mph 1027.4mb 59f
6:54 16 20 mph 1027.4mb 59f
6:48 16 21 mph 1027.4mb -
6:42 17 21 mph 1027.3mb -
6:36 17 21 mph 1027.3mb -
6:30 16 20 mph 1027.3mb 59f
6:24 17 24 mph 1027.3mb 59f
6:18 16 22 mph - 59f
6:12 14 17 mph - 59f
6:06 15 18 mph - 59f
6:00 15 18 mph 1027.6mb 59f
5:54 16 21 mph 1027.5mb 59f
5:48 16 24 mph 1027.5mb 59f
5:42 16 21 mph 1027.5mb 59f
5:36 16 20 mph 1027.5mb 59f
5:30 17 22 mph 1027.5mb 59f
5:24 16 23 mph 1027.6mb 59f
5:18 15 21 mph 1027.5mb 59f
5:12 17 22 mph 1027.4mb 59f
5:06 16 21 mph 1027.3mb 59f
5:00 18 23 mph 1027.3mb 59f
4:54 16 22 mph 1027.5mb 59f
4:48 16 20 mph 1027.6mb 59f
4:42 16 22 mph 1027.6mb 59f
4:36 15 18 mph 1027.8mb 59f
4:30 15 20 mph 1027.8mb 59f
4:24 15 20 mph 1027.9mb 59f
4:18 15 18 mph 1027.8mb 59f
4:12 16 24 mph 1027.8mb 59f
4:06 17 23 mph 1027.8mb 59f
4:00 17 22 mph 1027.8mb 59f
3:54 16 22 mph 1027.8mb 59f
3:48 17 21 mph 1027.7mb 59f
3:42 20 23 mph 1027.7mb 59f
3:36 18 22 mph 1027.7mb 60f
3:30 18 22 mph 1027.8mb 59f
3:24 18 25 mph 1027.9mb 59f
3:18 16 20 mph 1028mb 60f
3:12 16 21 mph 1028.1mb 59f
3:06 16 23 mph 1028.2mb 60f
3:00 15 18 mph 1028.2mb 60f
2:54 16 20 mph 1028.2mb 60f
2:48 15 18 mph 1028.3mb 60f
2:42 18 22 mph 1028.3mb 60f
2:36 17 22 mph 1028.4mb 60f
2:30 15 21 mph 1028.5mb 60f
2:24 16 20 mph 1028.6mb 60f
2:18 18 24 mph 1028.7mb 60f
2:12 16 21 mph 1028.8mb 61f
2:06 16 21 mph 1028.8mb 61f
2:00 17 22 mph 1028.8mb 62f
1:54 14 20 mph 1029mb 61f
1:48 15 20 mph 1029mb 61f
1:42 18 24 mph 1029mb 62f
1:36 20 28 mph 1029mb 62f
1:30 18 22 mph 1029mb 62f
1:24 18 24 mph 1029.1mb 62f
1:18 16 23 mph 1029.2mb 62f
1:12 18 26 mph 1029.2mb 62f
1:06 17 24 mph 1029.3mb 62f
1:00 17 23 mph 1029.3mb 63f
12:54 17 22 mph 1029.3mb 62f
12:48 21 25 mph 1029.2mb 62f
12:42 20 26 mph 1029.3mb 63f
12:36 17 21 mph 1029.4mb 63f
12:30 22 25 mph 1029.3mb 63f
12:24 22 28 mph 1029.2mb 63f
12:18 22 25 mph 1029.2mb 63f
12:12 21 28 mph 1029.3mb 63f
12:06 17 24 mph 1029.3mb 63f
12:00 18 24 mph 1029.3mb 63f
11:54 22 29 mph 1029.2mb 63f
11:48 16 22 mph 1029.3mb 63f
11:42 20 26 mph 1029.2mb 63f
11:36 20 23 mph 1029.3mb 63f
11:30 20 28 mph 1029.2mb 63f
11:24 15 18 mph 1029.3mb 63f
11:18 21 26 mph 1029.2mb 62f
11:12 21 25 mph 1029.3mb 62f
11:06 18 28 mph 1029.4mb 62f
11:00 18 23 mph 1029.5mb 62f
10:54 22 30 mph 1029.5mb 62f
10:48 20 32 mph 1029.5mb 62f
10:42 15 21 mph 1029.6mb 62f
10:36 18 26 mph 1029.5mb 62f
10:30 18 25 mph 1029.4mb 62f
10:24 18 22 mph 1029.5mb 62f
10:18 21 25 mph 1029.6mb 62f
10:12 22 29 mph 1029.4mb 62f
10:06 20 26 mph 1029.6mb 62f
10:00 22 30 mph 1029.7mb 62f
9:54 22 30 mph 1029.7mb 62f
9:48 21 26 mph 1029.7mb 62f
9:42 20 25 mph 1029.8mb 62f
9:36 17 22 mph 1029.8mb 62f
9:30 20 28 mph 1029.7mb 62f
9:24 22 31 mph 1029.6mb 61f
9:18 18 24 mph 1029.6mb 61f
9:12 17 23 mph 1029.5mb 61f
9:06 20 28 mph 1029.4mb 61f
9:00 16 22 mph 1029.5mb 61f
8:54 18 22 mph 1029.5mb 61f
8:48 20 28 mph 1029.5mb 61f
8:42 17 23 mph 1029.6mb 61f
8:36 18 24 mph 1029.6mb 61f
8:30 17 23 mph 1029.8mb 61f
8:24 17 25 mph 1029.7mb 61f
8:18 18 24 mph 1029.7mb 61f
8:12 15 21 mph 1029.8mb 61f
8:06 15 21 mph 1029.8mb 61f
8:00 16 21 mph 1029.7mb 61f
7:54 15 20 mph 1029.7mb 61f
7:48 15 18 mph 1029.8mb 61f
7:42 15 20 mph 1029.8mb 61f
7:36 15 23 mph 1029.8mb 61f
7:30 16 21 mph 1029.9mb 61f
7:24 17 22 mph 1029.8mb 61f
7:18 15 20 mph 1029.8mb 61f
7:12 17 23 mph 1029.7mb 61f
7:06 17 21 mph 1029.7mb 61f
7:00 17 22 mph 1029.7mb 61f
6:54 17 23 mph 1029.7mb 60f
6:48 15 17 mph 1029.6mb 60f
6:42 14 17 mph 1029.6mb 60f
6:36 15 21 mph 1029.7mb 60f
6:30 14 17 mph 1029.7mb 60f
6:24 13 17 mph 1029.7mb 60f
6:18 13 14 mph 1029.7mb 60f
6:12 11 15 mph 1029.8mb 60f
6:06 11 15 mph 1029.8mb 60f
6:00 11 13 mph 1029.8mb 60f
5:54 11 16 mph 1029.7mb 60f
5:48 13 14 mph 1029.7mb 60f
5:42 11 14 mph 1029.7mb 60f
5:36 14 15 mph 1029.6mb 60f
5:30 14 16 mph 1029.5mb 60f
5:24 13 15 mph 1029.6mb 60f
5:18 16 18 mph 1029.5mb 60f
5:12 15 18 mph 1029.5mb 59f
5:06 16 18 mph 1029.5mb 59f
5:00 15 18 mph 1029.5mb 59f
4:54 15 17 mph 1029.5mb 60f
4:48 16 20 mph 1029.4mb 59f
4:42 16 20 mph 1029.4mb 60f
4:36 15 21 mph 1029.5mb 60f
4:30 16 20 mph 1029.5mb 60f
4:24 16 20 mph 1029.6mb 60f
4:18 16 18 mph 1029.6mb 60f
4:12 16 20 mph 1029.7mb 60f
4:06 15 18 mph 1029.8mb 60f
4:00 15 18 mph 1030mb 60f
3:54 14 17 mph 1030.1mb 60f
3:48 14 18 mph 1030mb 60f
3:42 14 17 mph 1030mb 59f
3:36 13 15 mph 1030mb 60f
3:30 13 15 mph 1030mb 59f
3:24 11 14 mph 1030.1mb 59f
3:18 13 15 mph 1030.1mb 60f
3:12 14 18 mph 1030.1mb 59f
3:06 13 16 mph 1030.1mb 59f
3:00 11 15 mph 1030.3mb 59f
2:54 13 15 mph 1030.3mb 59f
2:48 13 16 mph 1030.4mb -
2:42 13 21 mph 1030.5mb -
2:36 9 11 mph 1030.7mb -
2:30 10 15 mph 1030.6mb 59f
2:24 13 16 mph 1030.5mb 59f
2:18 11 17 mph 1030.5mb 59f
2:12 13 15 mph 1030.6mb 59f
2:06 11 16 mph 1030.7mb 59f
2:00 11 14 mph 1030.7mb 59f
1:54 11 15 mph 1030.7mb 59f
1:48 11 14 mph 1030.8mb 59f
1:42 11 14 mph 1030.8mb 59f
1:36 10 15 mph 1030.8mb 59f
1:30 11 14 mph 1030.7mb 59f
1:24 9 13 mph 1030.7mb 59f
1:18 10 14 mph 1030.7mb 59f
1:12 11 14 mph 1030.9mb 58f
1:06 11 15 mph 1030.8mb 59f
1:00 11 15 mph 1030.8mb 58f
12:54 11 15 mph 1030.8mb 58f
12:48 10 13 mph 1030.9mb 58f
12:42 10 14 mph 1030.9mb 58f
12:36 13 15 mph 1030.9mb 58f
12:30 13 17 mph 1030.9mb 58f
12:24 11 15 mph 1031mb 58f
12:18 13 16 mph 1031mb 58f
12:12 14 18 mph 1031.1mb 58f
12:06 13 14 mph 1031.3mb 58f
12:00 10 13 mph 1031.5mb 58f
Do 09/29 11:54 10 11 mph 1031.8mb 58f
11:48 10 14 mph 1031.9mb 58f
11:42 9 11 mph 1031.9mb 58f
11:36 10 14 mph 1031.8mb 58f
11:30 13 16 mph 1031.6mb 58f
11:24 11 14 mph 1031.6mb 58f
11:18 9 13 mph 1031.8mb 58f
11:12 10 14 mph 1031.6mb 58f
11:06 11 15 mph 1031.6mb 58f
11:00 13 16 mph 1031.3mb 58f
10:54 14 18 mph 1031.4mb 58f
10:48 14 18 mph 1031.7mb 58f
10:42 11 16 mph 1032mb 59f
10:36 11 14 mph 1032mb 58f
10:30 11 17 mph 1032mb 58f
10:24 11 15 mph 1032mb 59f
10:18 11 14 mph 1032mb 58f
10:12 13 17 mph 1031.9mb 58f
10:06 11 14 mph 1032mb 58f
10:00 11 17 mph 1031.9mb 58f
9:54 11 15 mph 1031.9mb 58f
9:48 13 16 mph 1031.8mb 58f
9:42 11 16 mph 1032mb 58f
9:36 11 17 mph 1032mb 58f
9:30 13 15 mph 1031.9mb 58f
9:24 10 14 mph 1032mb 58f
9:18 11 14 mph 1031.9mb 59f
9:12 11 14 mph 1031.8mb 58f
9:06 10 13 mph 1031.9mb 58f
9:00 13 18 mph 1031.7mb 58f
8:54 14 16 mph 1031.7mb 58f
8:48 15 22 mph 1031.7mb 58f
8:42 11 16 mph 1031.8mb 58f
8:36 15 18 mph 1031.6mb 58f
8:30 15 20 mph 1031.5mb 58f
8:24 16 20 mph 1031.5mb 58f
8:18 16 18 mph 1031.4mb 58f
8:12 16 21 mph 1031.4mb 58f
8:06 16 20 mph 1031.3mb 59f
8:00 18 25 mph 1031.1mb 59f
7:54 17 22 mph 1031.2mb 59f
7:48 15 18 mph 1031.2mb -
7:42 16 21 mph 1031.2mb -
7:36 20 24 mph 1031.1mb -
7:30 16 21 mph 1031.1mb 59f
7:24 17 23 mph 1031.1mb 59f
7:18 16 20 mph 1031.1mb 59f
7:12 18 23 mph 1031.1mb 59f
7:06 18 28 mph 1031mb 59f
7:00 16 21 mph 1030.9mb 59f
6:54 16 20 mph 1031mb 59f
6:48 18 24 mph 1031mb -
6:42 18 24 mph 1030.8mb -
6:36 21 26 mph 1030.8mb -
6:30 18 23 mph 1030.8mb 59f
6:24 18 23 mph 1031mb 59f
6:18  -  mph 1031mb -
6:12  -  mph 1031.1mb -
6:06  -  mph 1031.1mb -
6:00 21 24 mph 1031.1mb 59f
5:54 21 26 mph 1031.1mb 60f
5:48 20 25 mph - 60f
5:42 17 22 mph - 60f
5:36 21 24 mph - 60f
5:30 18 23 mph 1031mb 60f
5:24 16 21 mph 1031.1mb 60f
5:18 21 25 mph 1031mb 60f
5:12 21 24 mph 1031mb 60f
5:06 21 26 mph 1030.9mb 60f
5:00 20 23 mph 1030.8mb 60f
4:54 21 26 mph 1030.9mb 60f
4:48 22 26 mph 1031mb 60f
4:42 18 22 mph 1031.1mb 61f
4:36 23 30 mph 1031mb 60f
4:30 22 30 mph 1031mb 61f
4:24 20 23 mph 1030.9mb 60f
4:18 23 29 mph 1030.9mb 60f
4:12 21 26 mph 1030.9mb 60f
4:06 22 28 mph 1030.9mb 60f
4:00 18 25 mph 1030.9mb 61f
3:54 21 25 mph 1031mb 60f
3:48 20 25 mph 1031.1mb 60f
3:42 18 24 mph 1031.1mb 60f
3:36 16 21 mph 1031.2mb 60f
3:24 21 26 mph 1031.1mb 60f
3:12 21 25 mph 1031.1mb 60f
3:06 15 21 mph 1031.2mb 60f
3:00 18 28 mph 1031.1mb 60f
2:54 16 22 mph 1031.2mb 60f
2:48 22 28 mph 1031.1mb 60f
2:42 21 26 mph 1031.1mb 60f
2:36 22 28 mph 1031.1mb 60f
2:24 16 22 mph 1031.1mb 61f
2:06 21 28 mph 1030.9mb 61f
2:00 21 28 mph 1030.9mb 61f
1:42 23 31 mph 1031.1mb 61f
1:36 22 31 mph 1031.2mb 61f
1:30 22 29 mph 1031.2mb 61f
1:24 22 28 mph 1031.1mb 61f
1:18 24 30 mph 1031.1mb 61f
1:12 23 26 mph 1031mb 61f
1:06 24 31 mph 1031.2mb 61f
1:00 20 26 mph 1031.4mb 61f
12:54 22 25 mph 1031.5mb 61f
12:48 23 29 mph 1031.5mb 61f
12:42 18 24 mph 1031.6mb 61f
12:36 23 31 mph 1031.4mb 61f
12:30 23 29 mph 1031.3mb 61f
12:24 23 28 mph 1031.3mb 61f
12:18 22 29 mph 1031.3mb 61f
12:12 24 29 mph 1031.3mb 60f
12:06 21 24 mph 1031.5mb 60f
12:00 22 26 mph 1031.4mb 60f
11:54 21 24 mph 1031.3mb 60f
11:48 18 24 mph 1031.3mb 60f
11:42 20 25 mph 1031.2mb 60f
11:36 21 26 mph 1031.3mb 60f
11:30 22 28 mph 1031.1mb 60f
11:24 21 29 mph 1031mb 60f
11:18 22 29 mph 1030.8mb 60f
11:12 22 28 mph 1030.7mb 60f
11:06 21 24 mph 1030.7mb 60f
11:00 18 22 mph 1030.7mb 60f
10:54 17 23 mph 1030.7mb 60f
10:48 20 23 mph 1030.6mb 60f
10:42 18 23 mph 1030.5mb 60f
10:36 23 29 mph 1030.4mb 60f
10:30 22 28 mph 1030.5mb 60f
10:24 20 23 mph 1030.4mb 59f
10:18 24 32 mph 1030.4mb 59f
10:12 22 31 mph 1030.6mb 59f
10:06 21 26 mph 1030.5mb 60f
10:00 20 24 mph 1030.4mb 59f
9:54 22 29 mph 1030.3mb 59f
9:48 22 30 mph 1030.2mb 59f
9:42 20 24 mph 1030.3mb 60f
9:36 20 26 mph 1030.2mb 59f
9:30 22 28 mph 1030.2mb 59f
9:24 21 29 mph 1030.3mb 59f
9:18 23 29 mph 1030.4mb 59f
9:12 18 23 mph 1030.3mb 59f
9:06 17 26 mph 1030.3mb 59f
9:00 21 25 mph 1030.1mb 59f
8:54 18 23 mph 1030mb 59f
8:48 17 23 mph 1029.9mb 59f
8:42 21 25 mph 1029.8mb 59f
8:36 22 25 mph 1029.6mb 59f
8:30 20 28 mph 1029.6mb 59f
8:24 21 29 mph 1029.6mb 59f
8:18 21 25 mph 1029.5mb 59f
8:12 21 25 mph 1029.4mb 59f
8:06 18 22 mph 1029.5mb 59f
8:00 17 22 mph 1029.3mb 59f
7:54 18 22 mph 1029.3mb 59f
7:48 15 18 mph 1029.3mb 59f
7:42 16 21 mph 1029.3mb 60f
7:36 14 20 mph 1029.3mb 59f
7:30 17 22 mph 1029mb 59f
7:24 16 21 mph 1029mb 59f
7:18 15 22 mph 1029.1mb 59f
7:12 20 28 mph 1028.8mb 59f
7:06 17 23 mph 1028.8mb 59f
7:00 18 23 mph 1028.7mb 59f
6:54 17 23 mph 1028.7mb 60f
6:48 20 23 mph 1028.6mb 59f
6:42 20 23 mph 1028.5mb 59f
6:36 20 24 mph 1028.4mb 60f
6:30 21 25 mph 1028.5mb 60f
6:24 22 26 mph 1028.5mb 60f
6:18 16 22 mph 1028.5mb 60f
6:12 20 23 mph 1028.4mb 60f
6:06 18 23 mph 1028.3mb 60f
6:00 18 23 mph 1028.3mb 60f
5:54 20 25 mph 1028.3mb 60f
5:48 18 24 mph 1028.2mb 60f
5:42 15 18 mph 1028.2mb 60f
5:36 17 21 mph 1028.1mb 60f
5:30 20 22 mph 1028mb 60f
5:24 15 20 mph 1028mb 60f
5:18 17 22 mph 1027.9mb 60f
5:12 17 22 mph 1027.7mb 60f
5:06 18 24 mph 1027.5mb 60f
5:00 21 26 mph 1027.4mb 60f
4:54 23 29 mph 1027.4mb 60f
4:48 21 25 mph 1027.3mb 60f
4:42 23 29 mph 1027.2mb 60f
4:36 18 22 mph 1027.3mb 60f
4:30 18 24 mph 1027.2mb 60f
4:24 20 29 mph 1027.1mb 60f
4:18 21 25 mph 1027mb 60f
4:12 17 22 mph 1027.1mb 60f
4:06 20 24 mph 1027mb 60f
4:00 18 24 mph 1026.9mb 60f
3:54 17 23 mph 1026.9mb 60f
3:48 17 23 mph 1026.9mb 60f
3:42 18 23 mph 1026.9mb 60f
3:36 16 21 mph 1026.9mb 60f
3:30 17 22 mph 1026.9mb 60f
3:24 17 21 mph 1026.8mb 60f
3:18 17 21 mph 1026.8mb 60f
3:12 17 21 mph 1026.7mb 60f
3:06 17 23 mph 1026.7mb 60f
3:00 15 20 mph 1026.7mb 60f
2:54 15 18 mph 1026.5mb 60f
2:48 16 21 mph 1026.3mb -
2:42 20 23 mph 1026.2mb -
2:36 17 23 mph 1026.2mb -
2:30 16 20 mph 1026.2mb 60f
2:24 20 24 mph 1026.1mb 60f
2:18 17 22 mph 1026.1mb 60f
2:12 17 25 mph 1026.1mb 60f
2:06 20 24 mph 1026.2mb 60f
2:00 20 25 mph 1026.2mb 60f
1:54 17 22 mph 1026.3mb 60f
1:48 18 22 mph 1026.4mb -
1:42 14 17 mph 1026.4mb -
1:36 16 21 mph 1026.4mb -
1:30 17 22 mph 1026.4mb 60f
1:24 16 21 mph 1026.4mb 60f
1:18 16 21 mph 1026.3mb 60f
1:12 16 21 mph 1026.4mb 60f
1:06 14 20 mph 1026.4mb 60f
1:00 16 22 mph 1026.4mb 60f
12:54 15 20 mph 1026.4mb 60f
12:48 18 24 mph 1026.4mb 60f
12:42 18 23 mph 1026.4mb 60f
12:36 17 22 mph 1026.3mb 60f
12:30 16 20 mph 1026.1mb 60f
12:24 20 23 mph 1026.1mb 60f
12:18 15 18 mph 1026.2mb 60f
12:12 20 23 mph 1026.1mb 60f
12:06 16 22 mph 1026.1mb 61f
12:00 16 23 mph 1026mb 61f
Mi 09/28 11:54 18 21 mph 1026mb 61f
11:48 17 25 mph 1026.2mb 60f
11:42 15 21 mph 1026.3mb 60f
11:36 15 17 mph 1026.2mb 60f
11:30 17 23 mph 1026.3mb 61f
11:24 15 21 mph 1026.2mb 61f
11:18 15 18 mph 1026.3mb 61f
11:12 15 20 mph 1026.3mb 61f
11:06 18 23 mph 1026.2mb 61f
11:00 16 21 mph 1026.2mb 61f
10:54 16 21 mph 1026.2mb 60f
10:48 16 21 mph 1026.2mb 61f
10:42 17 21 mph 1026.1mb 60f
10:36 16 21 mph 1026mb 61f
10:30 15 20 mph 1026mb 60f
10:24 13 16 mph 1025.9mb 60f
10:18 14 17 mph 1025.8mb 60f
10:12 16 20 mph 1025.7mb 60f
10:06 15 18 mph 1025.7mb 60f
9:54 15 18 mph 1025.5mb 61f
9:48 14 18 mph 1025.4mb 60f
9:42 17 21 mph 1025.3mb 60f
9:36 15 18 mph 1025.3mb 60f
9:30 15 18 mph 1025.2mb 60f
9:24 15 20 mph 1025.1mb 60f
9:18 16 20 mph 1025mb 60f
9:12 17 22 mph 1025mb 60f
9:06 17 21 mph 1025mb 60f
9:00 16 21 mph 1025mb 60f
8:54 15 21 mph 1025.1mb 60f
8:48 17 23 mph 1024.9mb 60f
8:42 15 18 mph 1025mb 60f
8:36 14 17 mph 1025mb 60f
8:30 16 20 mph - 60f
8:24 17 21 mph - 60f
8:18 18 22 mph 1024.7mb 60f
8:12 15 18 mph 1024.6mb 60f
8:06 15 18 mph 1024.5mb 59f
8:00 17 22 mph 1024.5mb 59f
7:54 17 25 mph 1024.5mb 59f
7:48 16 21 mph 1024.4mb -
7:42 17 21 mph 1024.3mb -
7:36 17 26 mph 1024.1mb -
7:30 15 20 mph 1024.2mb 59f
7:24 17 23 mph 1024mb 59f
7:18 16 22 mph 1023.9mb 59f
7:12 17 23 mph 1023.8mb 59f
7:06 18 24 mph 1023.9mb 58f
7:00 17 22 mph 1023.9mb 58f
6:54 15 22 mph 1023.8mb 59f
6:48 16 21 mph 1023.8mb 58f
6:42 15 20 mph 1023.7mb -
6:36 17 23 mph 1023.7mb -
6:30 15 20 mph 1023.8mb 59f
6:24 16 21 mph 1023.7mb 59f
6:18 16 23 mph 1023.6mb 58f
6:12 17 23 mph 1023.6mb 58f
6:06 18 23 mph 1023.6mb 58f
6:00 18 25 mph 1023.6mb 58f
5:54 20 24 mph 1023.7mb 58f
5:48 18 23 mph 1023.7mb 58f
5:42 18 22 mph 1023.9mb 58f
5:36 18 23 mph 1024mb 58f
5:30 14 21 mph 1024mb 58f
5:24 16 20 mph 1023.9mb 58f
5:18 16 22 mph 1023.7mb 58f
5:12 17 22 mph 1023.4mb 59f
5:06 18 22 mph 1023.3mb 58f
5:00 18 23 mph 1023.3mb 59f
4:54 18 28 mph 1023.4mb 58f
4:48 17 21 mph 1023.5mb 58f
4:42 16 21 mph 1023.5mb 58f
4:36 18 24 mph 1023.5mb 58f
4:30 17 23 mph 1023.4mb 58f
4:24 16 22 mph 1023.5mb 58f
4:18 21 26 mph 1023.4mb 58f
4:12 20 25 mph 1023.2mb 58f
4:06 18 22 mph 1023.2mb 59f
4:00 20 25 mph 1023.2mb 59f
3:54 17 23 mph 1023.2mb 59f
3:48 21 29 mph 1023.1mb 59f
3:42 20 25 mph 1023.2mb 59f
3:36 22 29 mph 1023.1mb 59f
3:30 21 24 mph 1023mb 59f
3:24 23 29 mph 1022.9mb 60f
3:18 24 30 mph 1023mb 60f
3:12 21 30 mph 1022.9mb 60f
3:06 21 26 mph 1022.8mb 60f
3:00 21 25 mph 1022.9mb 60f
2:54 24 29 mph 1022.7mb 60f
2:48 22 26 mph 1022.8mb 60f
2:42 23 29 mph 1022.7mb 60f
2:36 24 29 mph 1022.6mb 60f
2:30 22 28 mph 1022.4mb 60f
2:24 20 24 mph 1022.4mb 61f
2:18 22 29 mph 1022.4mb 60f
2:12 18 25 mph 1022.4mb 61f
2:06 21 26 mph 1022.3mb 61f
2:00 18 23 mph 1022.4mb 61f
1:54 22 28 mph 1022.3mb 62f
1:48 22 28 mph 1022.2mb 62f
1:42 22 24 mph 1022.3mb 62f
1:36 21 26 mph 1022.3mb 62f
1:30 21 26 mph 1022.3mb 62f
1:24 23 26 mph 1022.3mb 62f
1:18 22 28 mph 1022.2mb 62f
1:12 21 24 mph 1022.2mb 62f
1:06 23 26 mph 1022.2mb 62f
1:00 22 25 mph 1022.3mb 62f
12:54 18 25 mph 1022.3mb 63f
12:48 20 24 mph 1022.3mb 62f
12:42 21 24 mph 1022.2mb 63f
12:36 18 22 mph 1022.3mb 63f
12:30 22 26 mph 1022.2mb 63f
12:24 21 24 mph 1022.2mb 64f
12:18 18 23 mph 1022.1mb 64f
12:12 20 25 mph 1022.1mb 64f
12:06 22 26 mph 1022mb 63f
12:00 25 30 mph 1021.9mb 63f
11:54 22 28 mph 1021.9mb 63f
11:48 24 30 mph 1021.8mb 63f
11:42 22 26 mph 1021.8mb 63f
11:36 17 21 mph 1022mb 63f
11:30 21 25 mph 1022mb 63f
11:24 22 29 mph 1021.9mb 63f
11:18 21 26 mph 1021.9mb 63f
11:12 23 28 mph 1022mb 62f
11:06 22 26 mph 1022.1mb 62f
10:54 18 23 mph 1022.1mb 62f
10:48 22 26 mph 1022mb 62f
10:42 18 24 mph 1022.2mb 62f
10:36 18 24 mph 1022.3mb 62f
10:30 21 25 mph 1022.2mb 62f
10:24 22 28 mph 1022mb 62f
10:18 17 20 mph 1022mb 62f
10:12 18 23 mph 1022.1mb 62f
10:06 20 24 mph 1022mb 62f
10:00 20 25 mph 1022.3mb 62f
9:54 17 23 mph 1022.4mb 62f
9:48 18 23 mph 1022.2mb 62f
9:42 21 26 mph 1022mb 62f
9:36 17 22 mph 1022mb 62f
9:30 18 24 mph 1021.9mb 62f
9:24 17 22 mph 1021.8mb 62f
9:18 16 21 mph 1021.8mb 62f
9:12 16 20 mph 1021.9mb 62f
9:06 16 22 mph 1021.8mb 62f
9:00 18 22 mph 1021.7mb 62f
8:54 17 22 mph 1021.5mb 62f
8:48 18 23 mph 1021.5mb 62f
8:42 15 21 mph 1021.4mb 62f
8:36 17 21 mph 1021.3mb 62f
8:30 18 23 mph 1021.1mb 62f
8:24 16 20 mph 1021.1mb 62f
8:18 17 21 mph 1020.9mb 62f
8:12 17 21 mph 1020.8mb 62f
8:06 17 22 mph 1020.6mb 62f
8:00 17 21 mph 1020.6mb 62f
7:54 20 23 mph 1020.5mb 62f
7:48 17 21 mph 1020.5mb 62f
7:42 20 23 mph 1020.4mb 62f
7:36 17 22 mph 1020.4mb 62f
7:30 17 21 mph 1020.4mb 62f
7:24 15 18 mph 1020.4mb 62f
7:18 16 21 mph 1020.2mb 62f
7:12 16 20 mph 1020.1mb 62f
7:06 16 21 mph 1020.1mb 62f
7:00 14 16 mph 1020.1mb 63f
6:54 16 18 mph 1019.9mb 63f
6:48 17 22 mph 1019.8mb 63f
6:42 15 18 mph 1019.7mb 63f
6:36 15 20 mph 1019.7mb 63f
6:30 15 18 mph 1019.5mb 62f
6:24 14 17 mph 1019.5mb 63f
6:18 14 17 mph 1019.4mb 63f
6:12 11 14 mph 1019.3mb 63f
6:06 15 17 mph 1019.3mb 63f
6:00 14 17 mph 1019.3mb 63f
5:54 13 16 mph 1019.3mb 63f
5:48 14 17 mph 1019.2mb 63f
5:42 13 16 mph 1019.1mb 63f
5:36 13 15 mph 1019.1mb 63f
5:30 14 16 mph 1019.1mb 63f
5:24 14 16 mph 1018.9mb 63f
5:18 14 18 mph 1018.8mb 63f
5:12 16 20 mph 1018.7mb 63f
5:06 16 20 mph 1018.6mb 63f
5:00 13 15 mph 1018.6mb 63f
4:54 13 16 mph 1018.5mb 63f
4:48 15 18 mph 1018.4mb 63f
4:42 14 17 mph 1018.4mb 63f
4:36 15 20 mph 1018.2mb 63f
4:30 14 16 mph 1018.1mb 63f
4:24 14 16 mph 1018.1mb 62f
4:18 14 20 mph 1018mb 62f
4:12 13 15 mph 1018mb 62f
4:06 13 15 mph 1018mb 62f
4:00 10 15 mph 1018.1mb 62f
3:54 11 14 mph 1018mb 62f
3:48 11 14 mph 1017.8mb 62f
3:42 10 13 mph 1017.9mb 62f
3:36 10 13 mph 1018mb 62f
3:30 10 11 mph 1017.9mb 62f
3:24 10 11 mph 1017.8mb 62f
3:18 9 11 mph 1017.7mb 62f
3:12 10 14 mph 1017.7mb 62f
3:06 9 10 mph 1017.7mb 62f
3:00 7 8 mph 1017.6mb 63f
2:54 6 7 mph 1017.5mb 63f
2:48 7 8 mph 1017.2mb 63f
2:42 7 8 mph 1017.4mb 63f
2:36 6 7 mph 1017.5mb 63f
2:30 6 7 mph 1017.4mb 63f
2:24 6 7 mph 1017.2mb 63f
2:18 8 9 mph 1017.1mb 63f
2:12 7 9 mph 1017.1mb 63f
2:06 8 9 mph 1017.2mb 63f
2:00 7 8 mph 1017.3mb 63f
1:54 6 8 mph 1017.2mb 63f
1:48 7 9 mph 1017.1mb -
1:42 8 9 mph 1017mb -
1:36 8 9 mph 1017.1mb -
1:30 7 8 mph 1017.2mb 64f
1:24 8 9 mph 1017mb 64f
1:18 5 7 mph 1017mb 64f
1:12 6 7 mph 1016.9mb 64f
1:06 5 6 mph 1016.8mb 64f
1:00 5 6 mph 1016.8mb 64f
12:54 7 8 mph 1016.7mb 64f
12:48 7 8 mph 1016.7mb 64f
12:42 6 7 mph 1016.7mb 64f
12:36 7 8 mph 1016.6mb 64f
12:30 7 8 mph 1016.6mb 64f
12:24 7 8 mph 1016.6mb 64f
12:18 9 10 mph 1016.5mb 64f
12:12 9 10 mph 1016.4mb 64f
12:06 9 10 mph 1016.3mb 64f
12:00 9 11 mph 1016.3mb 64f
Di 09/27 11:54 8 9 mph 1016.2mb 64f
11:48 8 9 mph 1016.1mb 64f
11:42 7 8 mph 1016.2mb 65f
11:36 3 5 mph 1016.3mb 65f
11:30 5 6 mph 1016.1mb 65f
11:24 6
mph
1016.1mb 65f
11:18 5 6 mph 1016.1mb 65f
11:12 6
mph
1016.1mb 65f
11:06 6 7 mph 1015.9mb 65f
11:00 7 8 mph 1015.9mb 65f
10:54 5 6 mph 1016mb 65f
10:48 5
mph
1016mb 65f
10:42 5 6 mph 1015.9mb 65f
10:36 5 6 mph 1015.9mb 65f
10:30 6
mph
1015.8mb 65f
10:24 5 6 mph 1015.6mb 66f
10:18 2
mph
1015.5mb 66f
10:12 1 2 mph 1015.4mb 66f
10:06  -  1 mph 1015.4mb 66f
10:00  -  1 mph 1015.4mb 66f
9:54 1 2 mph 1015.3mb 66f
9:48 2
mph
1015.3mb 66f
9:42 1 2 mph 1015.2mb 66f
9:36 1 2 mph 1015.1mb 66f
9:30 1
mph
1015.1mb 66f
9:24 1 2 mph 1015.1mb 66f
9:18 1 2 mph - 66f
9:12  -  2 mph - 66f
9:06 1 2 mph - 66f
9:00  -  1 mph 1014.9mb 66f
8:54  -  1 mph 1014.9mb 66f
8:48  -  1 mph 1014.7mb 66f
8:42  -  1 mph 1014.6mb 66f
8:36  -  2 mph 1014.5mb 66f
8:30 1 2 mph 1014.5mb 66f
8:24 2 3 mph 1014.6mb 66f
8:18 3 5 mph 1014.6mb 66f
8:12 5 6 mph 1014.5mb 66f
8:06 5 6 mph 1014.4mb 66f
8:00 6
mph
1014.4mb 66f
7:54 5 6 mph 1014.3mb 67f
7:48 5 6 mph 1014.2mb -
7:42 5 6 mph 1014.2mb -
7:36 6 7 mph 1014.1mb -
7:30 6
mph
1014mb 67f
7:24 5 6 mph 1013.9mb 67f
7:18 5 6 mph 1013.9mb 67f
7:12 6 7 mph 1013.9mb 67f
7:06 6 7 mph 1013.8mb 67f
7:00 6 7 mph 1013.7mb 68f
6:54 6 9 mph 1013.6mb 68f
6:48 6 8 mph 1013.7mb 68f
6:42 5 7 mph 1013.7mb 68f
6:36 6 7 mph 1013.6mb 69f
6:30 6 8 mph 1013.5mb 69f
6:24 7 9 mph 1013.3mb 69f
6:18 7 9 mph 1013.1mb 69f
6:12 7 8 mph 1013.1mb 69f
6:06 6 7 mph 1012.9mb 70f
6:00 6 8 mph 1013mb 70f
5:54 7 8 mph 1013mb 70f
5:48 6 9 mph - 70f
5:42 7 8 mph - 70f
5:30 7 9 mph 1012.9mb 70f
5:24 7 8 mph 1012.9mb 70f
5:18 5 6 mph 1012.9mb 70f
5:12 3 5 mph 1012.8mb 70f
5:06 2 3 mph 1012.7mb 70f
5:00 3
mph
1012.7mb 70f
4:54 3
mph
1012.7mb 70f
4:48 3
mph
1012.7mb 70f
4:42 3 5 mph 1012.6mb 70f
4:36 5
mph
1012.6mb 70f
4:30 5
mph
1012.5mb 69f
4:24 3 5 mph 1012.5mb 69f
4:18 3 5 mph 1012.5mb 70f
4:12 5
mph
1012.5mb 69f
4:06 3 5 mph 1012.5mb 70f
4:00 5
mph
1012.6mb 70f
3:54 5
mph
1012.6mb 70f
3:48 5
mph
1012.6mb 70f
3:42 5 6 mph 1012.6mb 70f
3:36 6
mph
1012.6mb 70f
3:30 5 6 mph 1012.5mb 69f
3:24 5
mph
1012.6mb 70f
3:18 5
mph
1012.6mb 69f
3:06 5 6 mph 1012.6mb 69f
3:00 5 6 mph 1012.5mb 69f
2:54 3 5 mph 1012.5mb 69f
2:48 3 5 mph 1012.4mb 69f
2:42 3
mph
1012.4mb 69f
2:36 5 6 mph 1012.5mb 69f
2:30 5 6 mph 1012.4mb 69f
2:24 6 7 mph 1012.5mb 69f
2:18 5 6 mph 1012.6mb 69f
2:12 5 6 mph 1012.5mb 69f
2:06 2 3 mph 1012.5mb 69f
2:00 2 3 mph 1012.6mb 69f
1:54 5 6 mph 1012.7mb 69f
1:48 6 7 mph 1012.8mb 69f
1:42 6
mph
1012.7mb 69f
1:36 5 6 mph 1012.7mb 69f
1:30 3 5 mph 1012.7mb 69f
1:24 5
mph
1012.7mb 69f
1:12 3 6 mph 1012.8mb 69f
1:06 2 5 mph 1012.9mb 69f
1:00 3
mph
1012.8mb 69f
12:54 2 5 mph 1012.8mb 70f
12:48 5 6 mph 1012.8mb 70f
12:42 5 6 mph 1012.8mb 70f
12:36 6 8 mph 1012.8mb 70f
12:30 6 8 mph 1012.8mb 69f
12:24 6 7 mph 1012.8mb 69f